Regional Weather Roundup
Issued by NWS

Home | Current Version | Previous Version | Text Only | Print | Product List | Glossary Off
Versions: 1 2 3 4 5 6 7 8 9 10 11 12 13 14 15 16 17 18 19 20 21 22 23 24 25 26 27 28 29 30 31 32 33 34 35 36 37 38 39 40 41 42 43 44 45 46 47 48 49 50

000
ASUS43 KDTX 211410
RWRMI
MICHIGAN HOURLY REGIONAL WEATHER ROUNDUP
NATIONAL WEATHER SERVICE DETROIT/PONTIAC MI
1000 AM EDT THU SEP 21 2017

NOTE: "FAIR" INDICATES FEW OR NO CLOUDS BELOW 12,000 FEET WITH NO
SIGNIFICANT WEATHER AND/OR OBSTRUCTION TO VISIBILITY.

MIZ047>049-052>055-059>063-066>070-074>076-081>083-211500-
SOUTHEAST LOWER MICHIGAN

CITY           SKY/WX    TMP DP  RH WIND       PRES   REMARKS
ADRIAN         FAIR      75  68  78 SW7       30.09R
ALMA           FAIR      74  67  78 CALM      30.06S
ANN ARBOR      FAIR      74  70  87 S3        30.08R
BAD AXE        FAIR      76  65  68 S12       30.07S
CARO           FAIR      76  66  70 SE9       30.05S
DETROIT CITY   FAIR      76  69  79 S3        30.08S
DETROIT        PTSUNNY   75  70  84 S5        30.09R
FLINT          FAIR      76  68  76 S8        30.06S
GROSSE ILE     FAIR      74  69  87 S7        30.07S
HILLSDALE      PTSUNNY   73  68  83 S5        30.09R
HOWELL         FAIR      75  68  78 S7        30.07S

CITY           SKY/WX    TMP DP  RH WIND       PRES   REMARKS
JACKSON        FAIR      76  69  79 S5        30.07S
LAMBERTVILLE   FAIR      77  70  77 SW3       30.08R
LANSING        FAIR      77  68  73 S7        30.06R
LAPEER         FAIR      76  66  69 S3        30.08R
MASON          FAIR      78  69  74 S5        30.07R
MONROE         PTSUNNY   75  69  80 S3        30.08R
MT. CLEMENS    MOSUNNY   74  74 100 SE7       30.07S
PONTIAC        FAIR      74  68  81 S5        30.08R
PORT HURON     FAIR      73  68  83 S3        30.09S
TRI CITIES     FAIR      75  69  81 SW3       30.07R
MIDLAND        FAIR      74  67  78 SE3       30.05S
TROY           PTSUNNY   73  67  81 CALM      30.10S
SAGINAW HB     FAIR      75  66  73 S6        30.05R
$$
MIZ043>046-050>051-056>058-064>065-071>073-077>080-211500-
SOUTHWEST LOWER MICHIGAN

CITY           SKY/WX    TMP DP  RH WIND       PRES   REMARKS
BATTLE CREEK   FAIR      78  70  76 S9        30.06S
BENTON HARBOR  FAIR      76  69  79 S6        30.03R
BIG RAPIDS     FAIR      74  67  80 SE7       30.04S
COLDWATER      FAIR      77  72  84 S3        30.08R
FREMONT        FAIR      75  70  85 SE6       30.02S
HOLLAND        FAIR      77  69  76 SE3       30.03R
GRAND RAPIDS   PTSUNNY   78  70  76 SW6       30.04R
IONIA          FAIR      76  68  75 SW3       30.04R
KALAMAZOO      FAIR      77  69  76 S10       30.05R HAZE
LUDINGTON      FAIR      71  65  83 CALM      30.01S
MARSHALL       FAIR      76  72  85 S5        30.07R
MOUNT PLEASANT FAIR      73  66  80 CALM      30.05R
MUSKEGON       PTSUNNY   79  69  71 S8        30.02S
SOUTH HAVEN    FAIR      79  71  76 S7        30.02S
$$
MIZ016>042-211500-
NORTHERN LOWER MICHIGAN

CITY           SKY/WX    TMP DP  RH WIND       PRES   REMARKS
ALPENA         FAIR      74  69  85 S7        30.04R
BEAVER ISLAND  FAIR      73  68  85 CALM      30.02R
BELLAIRE       CLOUDY    70  66  87 CALM      30.01F
CADILLAC       FAIR      77  66  68 CALM      30.04S
CHARLEVOIX     FAIR      75  68  79 S5        30.03S
FRANKFORT      FAIR      74  69  84 CALM      30.02R
GAYLORD        PTSUNNY   72  65  78 S6        30.05R
GRAYLING       FAIR      72  65  80 CALM      30.05S
HARBOR SPRINGS FAIR      72  67  83 CALM      30.01R
HOUGHTON LAKE  FAIR      74  66  76 S6        30.05S
MANISTEE       FAIR      74  66  76 CALM      30.01R
OSCODA         FAIR      75  66  73 SW7       30.05S
PELLSTON       FAIR      75  67  76 CALM      30.01R
ROGERS CITY    PTSUNNY   71  66  85 S6        30.03R
TRAVERSE CITY  PTSUNNY   76  65  68 CALM      30.00R
$$
MIZ007>008-015-211500-
EASTERN UPPER MICHIGAN

CITY           SKY/WX    TMP DP  RH WIND       PRES   REMARKS
KINROSS        PTSUNNY   68  66  93 NE8       30.04R
MACKINAC ISLAN FAIR      71  67  88 CALM      30.01R
NEWBERRY       PTSUNNY   68  67  97 NW3       30.03R
S. S. MARIE    PTSUNNY   69  67  93 E3        30.04R
MUNISING         N/A     61  61 100 N6        30.05R
$$
MIZ004>006-011>014-085-211500-
CENTRAL UPPER MICHIGAN

CITY           SKY/WX    TMP DP  RH WIND       PRES   REMARKS
MANISTIQUE     FAIR      68  62  81 N6        30.02S
ESCANABA       FAIR      67  63  87 N6        30.03S
MENOMINEE        N/A     67  62  84 MISG        N/A
SAWYER-GWINN   PTSUNNY   61  57  88 NE6       30.07F
$$
MIZ001>003-009>011-084-211500-
WESTERN UPPER MICHIGAN

CITY           SKY/WX    TMP DP  RH WIND       PRES   REMARKS
IRON MOUNTAIN  FAIR      63  58  83 N5        30.06R
HOUGHTON       FAIR      62  55  77 E6        30.07R
COPPER HARBOR    N/A     58  56  93 CALM      30.06S
IRONWOOD       FAIR      56  54  93 E5        30.06S
$$

ABBREVIATIONS USED IN REMARKS
   TC - TEMPERATURE IN CELSIUS
  WCI - WIND CHILL INDEX
   HX - HEAT INDEX
  VSB - VISIBILITY





USA.gov is the U.S. government's official web portal to all federal, state and local government web resources and services.